Theta_e
325 318 313 318 311 314 311 305 302 298 296 291 288 295 298 298 299 300 300 301 303 305 304 312 309 312 312 311 313 311 311 311 309 305 306 315 327 336 337 338 338 338 339 339 339 341 346 346 346 345 340 340 341 343 346 346 346 346 345 346 346 346 346 344 340 338 339 343 342 342 342 343 342 342 341 339 340 340 341 341 342 342 343 343 343 344 344 344 345 345 345 346 345 345 344 344 343
321 314 314 313 316 312 308 301 294 291 291 290 292 291 294 295 300 299 300 301 303 309 313 316 316 315 314 315 315 317 313 317 310 317 323 328 336 335 338 338 338 337 338 338 338 342 345 347 346 345 340 340 340 344 346 346 346 345 346 346 345 345 345 342 341 340 341 341 340 339 339 339 339 339 340 340 339 341 342 343 342 342 343 343 343 343 343 344 344 344 345 344 345 344 343 343 342
317 313 316 314 314 305 304 301 301 286 288 289 289 292 294 297 299 300 301 300 306 314 314 314 313 312 312 310 310 310 311 323 319 324 326 334 328 332 337 338 338 337 336 337 338 340 344 346 345 346 341 340 338 340 346 345 345 345 345 345 344 343 341 339 341 340 339 339 340 341 340 340 340 340 340 339 339 339 342 342 342 342 342 343 343 343 343 344 343 343 343 344 344 344 343 343 342
316 314 315 309 310 305 298 294 292 290 292 290 289 292 292 297 299 300 300 302 314 311 307 312 311 313 311 310 311 316 317 319 325 326 325 329 330 335 337 337 337 336 336 337 337 339 344 344 344 346 342 339 339 339 346 345 345 345 343 342 342 341 339 336 336 336 341 340 337 337 336 338 338 338 339 340 340 340 340 341 341 341 341 344 344 342 342 342 342 342 343 343 343 343 342 342 341
316 317 311 308 305 304 296 291 290 290 292 289 295 294 293 295 301 298 305 307 310 302 305 310 312 314 315 314 312 310 315 323 326 329 329 333 337 337 337 336 336 336 336 337 337 339 344 342 343 344 341 338 339 339 340 344 343 342 341 342 341 339 338 338 338 337 337 339 338 340 341 342 342 342 342 342 342 342 342 341 341 341 341 343 344 344 344 344 343 343 342 343 343 343 342 342 342
312 311 309 310 306 306 299 296 295 293 294 292 295 295 293 295 300 302 307 307 309 303 303 306 311 312 315 317 317 316 322 318 326 328 331 332 337 338 336 336 336 335 335 335 336 339 343 341 343 344 343 340 339 339 338 340 342 341 341 342 340 338 338 342 341 341 341 343 343 344 344 344 344 344 343 343 342 342 341 341 341 342 343 344 343 344 344 344 343 343 342 342 343 342 341 341 341
316 306 304 306 302 301 296 291 290 290 295 293 298 294 295 295 301 306 305 308 304 305 302 310 310 312 312 314 319 323 322 326 327 328 334 336 338 337 336 335 335 334 334 335 337 338 341 341 344 345 345 342 339 338 337 339 341 339 340 340 340 338 338 340 341 343 344 344 344 343 343 343 342 341 341 341 341 341 341 341 341 341 341 341 341 342 343 343 342 342 342 342 342 341 340 340 339
313 310 304 299 296 294 291 289 291 291 296 292 295 296 295 296 300 307 305 303 303 305 309 310 306 309 309 314 315 322 321 323 326 335 337 337 337 336 335 335 334 333 333 334 336 339 341 340 344 344 345 343 341 338 336 337 338 337 339 341 342 340 341 343 343 343 343 341 340 341 341 341 340 340 340 340 340 340 340 341 341 341 341 341 340 341 341 342 341 342 341 341 341 340 339 339 338
307 306 302 300 293 290 287 293 292 290 292 292 293 293 302 299 303 306 302 299 302 303 309 313 308 307 308 311 310 319 322 327 331 336 337 336 335 335 334 334 332 332 333 334 336 338 341 339 342 344 344 345 344 340 337 337 338 337 337 343 344 344 344 342 341 341 340 340 339 339 339 339 339 340 340 340 339 340 340 340 340 339 340 340 340 340 340 340 340 341 341 341 340 340 339 338 337
306 306 300 296 294 295 286 286 292 294 293 293 295 299 299 300 300 301 301 300 303 308 310 304 305 302 310 311 313 320 324 329 333 334 336 336 335 334 333 333 333 333 333 333 335 336 340 342 339 340 342 344 345 342 340 339 337 337 337 344 344 343 342 340 340 339 338 338 338 338 339 339 340 340 340 340 340 339 339 339 339 338 338 339 339 339 339 339 340 340 340 340 339 338 337 337 336
302 301 299 297 289 289 291 287 286 291 293 293 295 295 298 301 300 297 298 301 303 308 307 308 312 310 312 310 314 319 321 330 332 330 335 335 335 333 332 333 334 334 334 334 335 337 339 341 340 338 340 341 343 343 342 341 338 337 339 344 343 342 341 339 338 336 338 338 338 340 339 339 339 339 339 339 339 339 339 338 338 338 339 338 338 339 338 339 340 340 340 339 338 338 336 336 335
301 298 298 289 290 290 288 290 289 291 293 293 301 299 299 300 299 300 300 303 304 302 305 309 309 311 307 308 314 319 323 329 331 334 335 335 335 333 332 332 334 334 335 335 335 337 337 338 342 341 336 337 338 339 339 340 340 340 340 342 343 342 339 337 337 336 337 338 339 339 339 339 338 338 338 338 340 338 338 338 338 338 338 338 338 338 338 338 338 338 338 337 337 336 336 335 334
298 297 294 292 292 291 290 290 290 294 291 295 300 301 299 300 301 300 299 301 301 303 304 307 311 310 306 309 315 315 323 330 332 334 335 334 334 332 332 332 333 334 335 337 337 336 336 336 338 341 339 334 333 333 335 337 339 340 339 341 343 343 342 342 343 343 339 338 339 342 342 342 341 338 338 339 340 338 339 339 339 337 338 338 338 338 338 339 337 336 336 336 336 336 336 335 334
299 297 297 296 290 290 291 292 289 292 289 298 295 297 299 301 300 299 301 302 301 302 305 305 313 312 309 310 313 315 323 330 332 334 334 334 334 331 330 332 332 333 335 336 335 336 335 336 336 337 341 341 340 335 332 334 337 339 339 340 341 342 342 343 342 341 341 341 340 340 339 339 339 339 339 339 338 338 337 338 339 338 338 338 338 338 338 337 336 335 334 335 335 336 336 335 334
305 299 294 290 290 291 291 293 294 289 295 295 299 299 299 300 296 298 303 301 301 303 308 313 314 304 299 308 309 316 322 329 332 334 333 334 333 330 330 330 331 332 334 334 333 335 335 336 335 335 336 337 337 337 339 338 332 335 337 337 338 339 339 338 338 337 338 338 337 335 334 333 333 333 334 335 335 334 333 332 336 338 337 337 337 337 337 336 335 334 334 334 334 335 335 334 333
302 297 294 294 292 291 293 292 286 291 294 295 296 294 300 298 296 301 301 303 304 307 309 313 310 303 307 306 310 318 324 329 332 332 332 332 331 329 329 328 330 330 332 333 332 334 337 336 335 334 334 334 334 333 335 337 332 330 333 334 334 335 335 334 333 332 330 331 330 330 329 331 330 331 327 332 329 332 330 331 332 336 336 336 335 336 336 336 336 333 332 332 331 331 331 331 331
301 300 297 289 292 291 294 292 290 294 293 293 293 297 302 300 296 298 300 306 305 307 307 308 309 314 311 307 316 316 326 329 329 331 331 330 328 326 326 327 327 329 329 330 329 333 336 336 334 333 334 334 335 334 333 334 334 329 330 329 330 330 331 330 328 324 323 323 325 323 325 332 333 333 334 334 326 333 324 326 330 335 336 335 335 335 335 335 335 335 333 331 330 327 324 324 324
303 294 290 292 290 291 294 294 292 295 295 294 295 294 301 298 297 301 306 305 306 307 308 309 310 312 315 315 315 320 326 328 329 329 328 327 327 325 323 324 325 325 327 328 329 333 334 335 335 333 333 334 334 334 333 332 333 331 334 335 335 331 326 325 329 332 328 331 322 328 332 331 331 332 333 330 334 333 331 323 328 332 334 333 335 334 335 335 335 334 332 330 328 323 318 323 323
297 293 294 292 291 295 296 296 294 294 295 294 294 293 299 301 297 299 301 298 306 306 308 308 312 313 316 318 322 323 326 327 328 328 326 325 325 324 323 323 323 324 325 327 328 331 332 334 335 334 333 333 334 334 333 332 331 330 331 332 332 326 329 328 330 329 329 329 329 330 329 330 330 330 330 330 330 321 328 323 326 328 329 329 331 331 331 332 332 331 329 327 324 319 323 323 323
299 296 292 289 294 294 295 294 297 293 294 294 294 295 295 297 298 299 301 297 303 304 304 305 308 311 313 316 320 323 326 326 328 328 326 326 326 325 325 323 323 324 325 326 326 329 331 332 333 334 333 333 334 333 333 332 332 330 330 330 330 330 328 327 327 326 327 327 328 329 327 326 327 327 325 325 326 329 326 320 320 320 321 320 320 324 322 323 324 324 324 320 318 319 323 324 324
299 296 292 293 293 294 295 294 294 293 292 295 294 293 294 295 297 299 297 300 301 303 304 306 307 310 314 317 320 322 325 325 327 327 327 326 326 327 327 325 324 324 326 326 327 327 330 331 332 333 334 333 333 332 331 331 331 330 328 328 329 328 327 326 326 326 326 326 326 327 326 325 325 325 325 326 327 326 326 327 326 326 324 324 319 324 322 322 322 324 323 320 320 320 324 323 323
297 295 296 295 293 296 294 293 291 293 290 294 292 296 297 296 297 297 299 298 298 302 306 306 307 312 315 317 320 322 324 325 326 326 326 326 326 326 328 327 326 326 327 325 325 327 328 329 331 332 333 333 332 332 331 330 330 330 328 327 326 326 327 326 325 325 325 325 326 325 324 324 324 324 324 324 324 324 326 326 324 322 323 322 318 321 320 320 321 321 320 321 319 319 321 321 319
294 293 293 294 294 293 293 293 291 292 293 293 294 296 295 297 296 295 299 300 299 298 299 307 307 314 317 320 321 321 323 324 325 326 327 326 327 327 327 328 326 325 325 325 326 326 328 329 329 331 331 332 332 332 331 330 330 330 330 328 326 325 326 326 326 324 325 324 324 324 325 324 324 324 323 323 324 322 325 323 323 320 320 320 319 320 319 316 320 321 321 319 317 320 323 322 320
293 292 292 293 293 293 293 293 292 290 293 293 293 295 296 295 296 295 298 302 296 297 299 296 308 316 319 319 320 322 323 324 325 327 328 328 327 328 328 328 328 328 326 326 326 326 327 328 328 329 329 330 331 332 330 329 329 329 329 327 326 326 325 326 326 325 324 324 324 325 324 324 324 323 323 323 323 322 324 322 320 319 317 319 318 319 319 317 319 318 320 319 319 318 321 323 322
299 293 292 293 291 292 293 291 289 290 291 292 294 296 295 295 295 294 297 301 298 308 308 309 313 316 318 319 319 321 322 324 325 327 329 330 330 329 330 330 329 328 326 327 326 327 328 328 328 328 328 329 330 331 329 329 329 329 328 327 327 324 326 327 326 325 325 324 324 324 324 324 323 323 323 323 320 322 321 320 320 321 316 318 318 318 318 320 319 319 318 318 317 320 320 323 321
302 300 296 294 294 293 294 292 290 290 291 291 294 293 292 292 294 295 298 297 298 310 311 312 313 315 316 318 319 320 321 323 325 325 326 329 329 328 329 329 329 328 328 328 328 327 328 329 328 327 327 328 329 329 329 328 328 328 328 327 328 325 327 327 325 325 325 325 324 323 324 325 324 324 322 321 321 322 320 318 319 320 320 319 318 321 318 320 324 321 320 320 321 321 321 322 319
300 297 297 299 299 297 296 294 292 290 293 292 295 292 293 293 295 296 295 294 303 309 310 311 312 314 316 317 318 320 321 322 323 325 326 327 328 328 328 330 329 329 330 329 329 329 329 329 329 328 328 328 329 328 328 327 328 328 328 328 328 326 327 326 325 326 325 324 325 323 324 324 324 324 324 322 321 322 321 319 320 318 319 320 320 320 317 320 321 323 323 323 323 322 322 320 319
299 298 300 301 302 300 298 292 292 291 294 290 295 293 292 292 294 296 297 295 305 305 309 311 312 312 314 316 318 320 320 321 323 324 323 324 325 327 328 328 329 330 330 330 330 330 330 329 329 329 329 328 327 328 327 326 326 327 328 328 328 327 326 326 326 326 324 325 325 324 324 324 324 325 324 323 323 323 322 320 320 319 321 320 319 321 319 318 321 321 319 319 319 319 320 320 319
298 299 301 301 301 301 297 298 294 294 294 291 294 293 291 292 292 298 294 299 302 304 307 311 311 311 313 315 317 318 319 320 321 322 323 325 327 328 327 330 330 329 331 332 331 331 330 330 329 330 330 329 328 327 327 327 326 327 327 328 328 327 326 326 326 325 326 325 325 325 324 324 324 325 324 324 322 324 323 321 320 320 321 322 320 319 319 320 319 320 320 316 317 318 319 320 318
299 297 297 298 297 298 301 294 292 293 294 291 293 289 288 291 296 295 291 300 301 301 304 308 310 311 311 313 315 317 318 318 319 321 323 324 326 327 328 329 330 330 331 331 332 330 331 332 331 331 331 330 328 328 328 328 327 327 327 327 328 328 327 326 326 326 326 325 325 325 324 324 324 325 325 323 323 323 322 322 322 322 322 321 320 320 320 320 321 320 322 319 318 318 320 320 318
298 298 296 294 294 295 300 294 292 296 293 290 293 289 289 290 293 295 293 299 300 299 302 306 308 310 310 312 314 315 317 319 320 321 322 324 325 326 327 329 330 330 330 330 330 331 331 331 331 331 331 331 329 329 329 329 329 328 326 326 326 327 326 326 327 327 325 326 325 325 325 324 324 324 324 324 322 322 322 321 321 323 322 320 321 320 321 320 319 320 320 320 320 318 318 318 318
294 297 294 289 292 295 293 294 293 294 293 290 294 288 291 294 297 294 293 299 297 297 298 304 306 308 309 311 313 314 316 318 320 320 321 323 324 325 326 327 329 329 329 329 330 330 330 331 331 331 332 331 331 330 330 331 331 330 329 324 326 326 326 326 327 326 326 326 325 325 325 324 324 324 323 323 323 321 322 322 323 323 321 319 320 319 318 319 319 320 321 320 321 321 319 320 320
292 294 288 288 286 290 291 296 291 293 293 294 293 290 286 291 291 289 290 299 297 296 295 299 304 306 308 310 312 314 315 316 317 318 320 321 322 324 324 326 327 328 329 329 329 329 329 330 329 330 331 331 332 332 331 332 332 331 330 329 327 327 326 326 327 327 326 325 325 325 325 325 324 324 323 322 323 321 321 321 322 321 319 319 320 319 319 320 320 319 320 318 319 320 320 320 320
291 289 292 288 288 288 290 292 291 291 292 291 292 289 288 293 296 290 291 297 298 297 297 295 299 304 308 309 311 312 314 315 316 318 319 320 322 323 324 322 326 327 328 328 329 328 328 329 329 330 331 332 333 332 332 332 333 333 331 330 326 327 327 327 327 326 325 325 325 325 325 325 324 324 323 322 322 322 322 322 322 321 320 320 321 320 320 320 320 320 319 319 318 318 319 319 319
291 288 288 290 286 286 288 289 292 291 290 290 289 288 291 293 296 295 290 294 296 296 297 297 297 301 305 308 309 310 312 313 315 318 320 321 321 322 323 324 325 325 326 327 327 327 328 328 328 328 329 332 332 333 333 333 333 333 332 330 328 328 327 327 327 326 326 326 325 326 325 325 324 325 324 323 322 323 322 323 323 324 323 322 322 321 321 321 321 320 320 322 319 319 320 319 319
294 291 291 290 290 289 287 289 289 290 289 288 288 288 290 292 293 297 292 292 294 295 295 295 294 297 301 305 308 309 310 312 315 317 318 320 321 321 322 323 323 324 325 325 325 326 326 327 328 328 328 330 332 332 333 331 331 329 328 328 327 326 327 326 327 327 327 326 326 325 325 325 325 324 325 324 324 323 323 323 323 324 323 322 321 321 320 319 320 320 319 318 318 316 315 316 316
294 291 291 290 289 289 288 287 289 288 288 287 289 289 289 291 293 295 293 290 292 292 293 295 296 296 297 301 305 307 309 311 314 315 316 317 318 320 321 321 322 322 323 324 324 324 326 326 326 326 327 328 329 329 330 329 328 328 329 327 326 327 326 327 326 327 327 327 327 326 326 326 326 325 325 326 325 323 324 325 323 324 324 323 323 323 324 322 321 321 321 318 317 316 318 316 315
292 290 289 288 287 289 288 289 288 288 289 285 285 286 288 290 292 294 294 289 292 292 292 293 294 294 295 297 300 303 307 309 308 309 309 313 316 318 319 320 319 320 321 323 323 324 325 326 326 326 327 327 328 329 330 330 330 329 328 328 328 328 326 325 326 327 327 327 327 327 327 328 327 326 325 326 325 325 325 325 325 325 324 324 324 324 322 318 320 320 319 319 316 318 319 314 314
290 289 287 286 286 286 288 287 287 287 288 286 284 286 288 290 291 293 293 293 293 294 294 295 294 294 293 294 296 298 300 303 304 306 308 310 313 315 317 319 320 321 322 322 323 324 324 324 325 326 327 327 327 328 329 329 331 331 331 330 330 327 328 329 329 329 329 328 328 328 328 329 328 327 327 326 326 326 326 327 326 326 325 323 321 320 322 320 320 320 318 320 319 314 316 315 315
288 286 286 286 287 287 288 287 287 289 288 286 285 285 288 290 290 291 293 292 293 294 293 294 294 295 294 295 296 296 296 298 299 302 303 305 309 312 314 317 319 321 321 322 322 323 324 323 325 325 326 326 327 327 326 330 331 332 332 332 331 330 328 327 329 328 329 328 327 328 329 329 328 328 328 326 326 327 328 327 327 327 326 325 325 324 322 320 320 319 318 318 319 318 316 316 315
288 289 287 285 285 286 287 285 286 286 286 287 285 286 288 289 290 293 293 291 292 293 291 291 292 293 296 296 295 295 296 297 298 299 300 301 303 307 311 314 318 319 320 321 322 322 323 324 324 325 325 325 326 325 326 328 328 327 328 326 325 326 320 322 323 322 325 324 326 326 327 328 328 329 328 328 326 327 327 327 327 327 327 325 324 324 323 322 322 321 320 318 317 318 317 316 312
286 288 290 291 288 286 286 287 287 285 284 285 286 282 284 285 286 290 292 289 289 289 291 292 293 293 293 293 294 295 296 296 297 298 299 300 302 304 307 311 314 317 319 321 322 323 323 324 324 324 325 325 325 326 326 326 326 327 324 323 320 321 322 321 319 321 320 321 323 325 326 327 328 328 328 328 327 326 327 328 327 327 326 326 324 324 324 324 322 320 319 319 317 317 317 315 312
287 288 289 289 289 289 289 287 287 282 281 286 286 283 280 283 288 289 288 288 290 291 290 291 292 292 291 293 294 295 295 296 296 296 297 296 299 301 303 308 312 314 317 320 322 322 323 324 324 324 324 325 325 325 325 324 326 326 326 325 325 323 323 324 325 325 325 324 325 324 326 326 327 327 327 327 327 327 328 328 328 328 327 325 323 322 322 323 323 321 319 319 319 318 316 313 314
288 291 290 290 290 290 289 288 286 283 284 287 285 284 280 281 288 290 291 288 290 290 291 290 291 291 291 292 293 294 296 296 297 297 297 297 297 299 301 304 309 312 315 318 320 321 322 322 323 323 324 323 325 325 324 325 325 326 326 326 325 326 325 326 327 326 326 324 324 324 325 325 325 327 327 326 326 326 327 327 328 327 326 325 322 322 323 323 321 319 318 319 318 318 316 315 315
292 291 292 291 291 291 290 289 285 285 284 283 284 287 283 280 283 283 285 290 292 291 292 292 291 292 293 293 294 294 295 296 296 297 297 297 297 297 299 301 305 310 313 315 318 320 321 322 322 323 323 323 324 324 324 324 324 326 326 326 325 325 327 327 325 323 324 323 323 323 323 324 323 324 325 325 325 326 325 326 326 326 326 325 322 322 322 321 321 319 315 315 317 316 316 316 316
291 291 294 292 291 290 290 286 288 285 282 282 283 284 282 284 285 287 284 284 288 290 291 293 292 293 293 294 294 295 295 295 295 295 297 297 297 297 297 299 301 305 310 314 316 318 319 320 321 321 322 323 323 323 323 324 324 323 325 325 324 325 324 322 320 320 321 320 323 322 322 322 321 321 322 323 324 325 326 325 325 325 324 324 319 321 319 319 318 317 317 317 317 316 315 316 316
294 293 291 290 288 286 285 286 285 285 281 283 284 282 284 281 285 288 287 288 289 288 289 290 291 292 291 292 293 295 295 295 295 294 295 295 296 296 295 296 299 301 306 311 313 315 317 319 320 320 321 322 322 322 322 323 323 324 324 324 324 324 323 322 318 317 318 316 321 320 319 320 319 319 319 319 321 323 324 322 324 323 323 317 317 319 318 318 318 318 316 314 314 315 314 314 313
293 289 287 289 287 288 286 285 286 281 280 281 280 282 283 280 283 285 290 288 285 290 291 293 294 293 294 294 293 293 292 292 292 292 293 294 294 293 293 294 296 298 302 307 311 313 315 317 319 319 320 321 322 322 322 323 323 324 324 325 324 325 324 322 321 319 316 314 319 318 317 316 315 316 316 316 317 319 320 321 319 321 318 319 319 319 318 317 316 316 316 316 314 314 314 313 312
291 290 289 286 281 282 279 282 279 280 280 281 278 280 280 282 289 286 287 287 288 287 288 291 291 292 292 292 291 291 291 290 290 291 292 292 292 294 293 294 295 296 299 304 308 312 314 316 317 318 318 320 321 321 321 322 323 323 324 324 324 324 324 323 322 322 319 318 319 318 314 314 313 311 311 314 316 317 318 318 317 317 317 318 317 317 316 315 315 315 315 314 314 313 312 312 311
289 288 287 284 279 278 277 279 277 278 281 280 280 281 280 286 287 289 292 296 296 292 289 289 290 290 291 292 291 290 291 291 291 292 292 293 293 294 293 294 294 295 297 301 306 309 312 314 315 317 318 319 319 320 321 321 322 323 324 324 324 323 323 322 322 322 320 320 320 319 315 314 312 313 313 315 317 317 317 318 317 316 316 315 314 315 314 314 314 315 314 313 312 313 312 311 310
289 290 291 287 284 279 276 277 278 279 279 278 279 279 280 281 285 286 288 290 289 288 287 288 288 288 289 289 289 289 290 291 292 292 293 294 294 294 294 294 294 294 296 299 303 307 311 312 314 315 316 317 318 319 320 320 321 322 323 324 324 324 323 322 322 322 321 318 319 319 317 316 314 315 316 317 316 316 316 314 314 314 313 313 312 311 311 311 312 312 311 310 309 309 310 309 308
288 288 289 285 285 283 276 272 277 275 275 274 276 282 282 286 287 289 288 286 287 288 288 288 289 288 287 288 291 292 292 293 293 293 294 294 295 295 294 294 294 294 296 298 301 305 308 311 313 315 316 317 317 317 319 320 320 321 321 322 323 323 321 322 321 319 320 319 318 318 317 317 317 317 316 315 314 314 312 311 311 312 312 312 311 310 310 309 309 309 308 307 306 306 306 306 305
286 288 285 287 288 284 278 276 277 274 273 275 275 278 283 284 289 292 294 290 290 287 286 286 287 287 287 288 290 291 293 293 293 294 294 295 294 293 293 293 294 294 295 297 299 303 306 309 310 312 314 315 316 316 318 319 320 319 320 321 321 321 321 320 320 318 318 317 317 317 317 316 317 316 314 313 311 310 311 311 311 311 311 311 310 310 310 309 308 307 307 306 304 304 304 304 304
288 284 288 288 287 284 281 276 272 271 272 274 274 279 281 280 282 285 283 287 290 290 287 286 285 286 287 290 291 291 292 292 292 292 292 292 292 292 292 292 293 294 295 295 297 299 302 306 309 310 311 313 314 315 316 317 318 318 319 319 320 321 320 320 320 318 316 314 314 314 314 312 313 312 311 309 309 308 309 306 309 308 308 309 309 309 309 308 306 304 305 305 303 303 301 300 300
290 286 291 289 280 279 281 277 273 270 268 271 272 274 276 280 284 285 287 283 286 291 291 288 288 288 288 288 289 290 290 290 290 291 292 292 292 292 292 293 293 293 293 294 296 297 298 300 302 306 309 311 312 313 314 315 317 318 319 319 319 319 319 319 318 316 314 314 312 313 312 312 310 307 306 306 307 306 306 305 305 304 304 304 304 305 305 305 305 303 302 301 301 301 299 297 297
287 288 287 286 283 278 277 280 274 275 271 268 273 269 280 280 281 284 289 292 290 290 290 290 289 289 288 288 290 290 290 291 290 291 291 292 292 293 293 293 294 294 294 294 294 295 296 299 300 302 304 306 307 309 311 314 316 317 317 317 317 318 316 317 315 314 312 313 312 312 311 309 308 305 306 306 305 304 302 301 300 300 300 299 300 300 301 302 302 301 299 297 296 298 296 295 294
283 284 284 285 283 284 282 280 278 276 266 266 269 273 278 281 283 285 289 290 292 292 293 291 289 290 290 289 289 290 290 290 290 290 290 291 292 292 292 292 292 292 293 293 294 296 296 296 297 300 303 305 306 308 310 313 315 315 314 314 315 314 314 314 313 312 312 312 311 310 311 310 306 305 304 303 302 301 301 300 299 298 298 297 297 295 297 299 298 296 295 294 294 297 296 294 293
287 287 285 287 284 279 278 276 278 273 275 273 267 276 281 283 281 286 288 290 289 290 289 291 290 289 289 290 290 289 289 290 289 289 290 291 290 290 290 291 292 293 295 295 296 296 296 296 297 298 300 303 305 307 309 311 313 314 314 313 313 313 313 312 312 311 311 310 310 310 308 305 305 303 303 302 301 299 298 298 298 297 296 295 294 294 294 297 295 293 292 295 295 296 294 291 290
Wind_Speed
5 4 2 2 4 2 1 7 1 3 3 0 1 1 2 1 1 1 2 2 2 2 2 2 3 5 4 4 6 4 1 6 4 5 3 0 1 8 7 8 7 5 5 3 2 4 5 8 8 8 10 10 11 10 8 10 11 11 12 14 11 11 15 14 13 12 13 14 15 15 16 15 16 17 15 15 14 16 15 16 16 16 16 16 17 18 18 18 18 18 18 19 19 19 19 18 18
3 3 2 1 1 2 1 2 5 3 5 3 2 1 2 3 2 5 7 6 2 2 3 5 6 6 6 5 7 6 3 2 4 1 3 1 7 6 7 7 7 7 4 3 3 4 5 6 6 6 9 10 10 10 9 11 12 10 15 15 13 14 13 14 14 13 13 13 13 14 14 14 13 15 16 15 14 16 16 16 16 16 16 16 17 18 18 18 18 18 18 18 18 18 18 18 18
3 5 0 3 3 5 2 4 1 1 4 2 3 5 2 3 4 5 7 3 3 4 3 6 5 2 2 0 2 2 3 2 2 2 4 7 11 6 8 7 6 5 5 3 4 4 4 6 6 5 9 10 9 8 11 11 10 11 13 13 12 12 13 11 13 12 12 12 13 14 14 14 14 14 15 14 14 15 16 16 15 16 16 16 17 18 18 18 18 18 17 17 18 17 18 18 18
2 5 2 3 2 4 2 4 4 4 2 2 3 3 5 4 7 5 3 3 8 4 1 2 3 2 1 2 1 3 4 3 2 5 6 9 4 8 9 8 4 5 4 3 3 4 4 6 6 4 7 10 10 9 14 10 10 10 10 11 11 11 11 11 10 10 13 12 12 12 13 13 13 14 15 15 15 14 14 15 15 15 16 16 16 17 17 17 17 17 17 17 17 17 17 17 18
2 2 2 3 3 2 3 1 4 2 2 5 2 3 5 6 5 4 3 4 4 2 3 1 3 4 0 3 1 0 2 2 5 3 4 4 5 9 10 8 5 5 5 4 3 4 5 7 6 3 8 10 10 9 8 12 11 10 10 11 11 10 9 10 11 10 11 11 11 13 14 14 14 14 14 14 14 14 14 15 15 14 15 16 16 17 17 18 17 17 16 16 17 17 17 17 17
4 2 4 2 1 2 4 1 3 1 3 6 0 1 6 7 7 7 7 4 3 2 1 1 2 5 1 3 1 1 4 4 5 1 6 5 11 10 10 7 5 5 4 3 3 4 4 7 5 3 7 9 10 9 8 9 9 10 11 11 11 9 9 11 9 10 11 11 11 12 14 14 15 14 14 14 14 13 14 14 14 15 16 15 16 17 17 17 17 16 16 16 17 17 16 16 16
1 3 5 3 2 3 3 2 1 3 1 6 1 1 3 5 5 9 5 1 2 1 3 2 3 3 5 2 1 1 2 2 5 2 4 9 10 11 9 7 6 5 4 3 3 4 5 7 6 5 4 9 9 8 7 9 9 9 10 9 10 10 9 9 9 10 11 12 12 13 14 14 13 13 13 13 13 13 14 14 14 14 14 15 15 15 16 16 16 16 16 16 16 16 16 15 16
2 1 2 1 1 4 2 1 1 5 1 5 0 3 2 5 6 7 9 4 2 3 1 2 2 2 1 2 3 2 3 0 1 7 9 10 10 11 9 9 8 6 4 3 3 3 5 6 7 5 4 7 10 9 8 6 7 7 7 9 8 9 9 10 10 11 10 11 11 12 12 13 13 13 12 13 13 13 13 14 14 14 14 15 14 14 15 15 15 16 16 16 16 15 15 14 14
6 6 1 3 1 3 3 1 2 3 7 3 6 6 4 6 6 8 8 3 1 2 3 6 0 0 3 2 1 2 2 3 4 11 10 10 11 11 7 9 9 7 5 4 2 3 4 6 8 7 5 4 5 10 8 6 7 6 6 10 9 9 8 10 10 9 10 11 10 10 11 11 11 12 12 12 12 12 12 13 13 13 14 14 14 14 14 14 15 15 15 15 14 14 13 13 13
2 2 1 2 3 1 3 3 1 2 2 3 3 2 4 6 6 2 7 2 2 4 4 2 3 1 3 3 1 2 2 1 10 11 10 11 11 10 9 9 9 8 6 5 2 3 4 5 7 7 6 4 4 7 8 7 6 6 6 11 10 10 10 9 10 9 10 10 10 10 11 11 11 11 11 11 11 11 11 12 12 13 13 13 14 13 13 13 14 14 14 14 13 12 12 12 12
1 5 2 3 3 1 2 4 4 4 3 5 7 7 6 7 5 5 2 2 1 4 2 2 3 5 3 1 2 2 3 4 12 13 13 11 11 11 9 9 8 8 7 6 3 3 4 4 7 8 6 5 5 5 8 8 8 6 7 9 10 9 10 10 9 7 10 10 10 11 11 10 11 11 11 11 11 11 11 11 11 12 12 13 13 13 13 13 13 13 13 12 11 11 11 11 11
0 2 2 3 1 2 2 2 5 7 8 3 0 1 4 9 4 3 2 4 2 1 5 4 2 7 4 1 2 2 2 6 9 10 13 11 9 10 8 7 8 7 8 5 5 4 3 3 4 6 7 6 6 6 7 8 8 4 2 6 9 9 9 9 8 8 9 9 10 10 10 10 10 11 11 10 8 10 10 10 11 11 12 12 12 12 12 12 13 12 11 11 10 10 10 10 10
4 1 5 4 1 1 1 0 3 3 6 2 2 1 5 8 5 5 6 2 4 4 3 9 4 3 3 4 2 3 5 7 7 12 12 11 9 9 8 8 8 8 8 6 7 5 4 4 3 4 6 8 7 6 7 7 8 5 2 6 9 7 12 11 12 11 8 10 10 11 12 11 10 10 10 9 9 10 10 9 9 10 11 11 11 11 12 12 12 12 11 10 9 9 9 8 9
3 1 3 1 2 2 3 1 1 2 2 0 2 2 5 4 4 7 8 5 5 6 2 2 5 4 2 1 3 2 7 9 6 12 11 10 8 9 9 8 9 8 8 7 8 6 5 4 4 4 6 5 5 5 6 8 7 7 6 8 9 9 10 11 10 9 10 11 11 10 10 11 11 11 10 10 10 9 8 6 7 9 10 11 11 11 11 12 11 11 11 11 10 9 8 8 8
1 2 5 5 1 0 3 1 0 1 1 1 1 7 3 2 4 5 7 6 7 3 1 1 5 2 4 8 4 7 7 11 9 10 11 10 10 10 9 8 7 7 7 7 8 7 5 4 4 3 4 5 5 4 4 6 8 7 8 9 9 8 9 10 10 9 9 10 10 10 9 10 10 11 10 10 9 9 9 8 7 7 9 10 10 10 11 11 11 11 11 11 11 10 9 9 8
4 4 3 2 0 2 2 1 1 2 2 2 1 2 2 1 2 5 5 1 1 1 1 3 0 1 1 4 1 5 8 12 9 9 12 13 11 9 8 7 6 8 8 8 8 8 5 5 4 4 4 5 4 4 4 5 6 8 8 9 9 8 8 9 9 9 9 9 10 9 9 8 8 8 10 8 9 9 9 8 10 8 7 8 9 9 9 10 11 11 11 11 11 10 10 10 9
2 2 0 3 1 2 2 2 5 0 4 3 3 2 6 3 1 2 0 0 4 2 1 1 4 2 4 4 1 4 9 11 10 12 13 11 10 8 7 6 6 6 6 7 7 7 8 6 6 4 4 5 6 6 5 5 5 8 7 9 10 9 8 8 10 9 8 7 8 8 7 6 4 4 5 5 7 6 8 9 9 9 8 6 7 8 8 9 11 11 11 10 10 10 8 9 8
1 2 4 1 2 3 4 4 8 1 1 2 1 3 1 4 0 0 1 4 4 1 2 4 2 4 4 4 4 3 11 14 14 15 12 12 10 7 8 7 8 8 7 7 7 8 8 7 6 6 5 6 7 6 5 5 4 5 6 5 5 6 7 6 6 5 3 4 6 5 4 3 3 3 4 4 4 5 6 8 8 8 8 9 8 7 8 9 11 10 11 10 10 9 9 4 4
2 2 2 5 5 1 3 1 5 1 3 3 2 1 3 3 5 2 2 2 1 1 3 1 2 3 3 1 7 10 13 13 15 13 15 15 12 13 10 8 9 9 8 7 7 9 9 9 8 6 6 6 8 7 5 5 5 4 4 5 5 5 5 6 4 5 3 3 3 3 3 2 3 3 3 4 4 5 6 7 7 7 8 8 8 10 10 10 10 10 9 9 8 9 5 3 2
1 2 2 3 7 2 3 2 2 5 1 5 3 0 3 2 3 2 2 2 1 7 6 2 5 8 6 3 8 10 12 13 15 15 14 15 13 13 11 11 9 9 9 8 9 7 8 8 10 9 7 7 7 6 6 5 5 5 4 4 4 4 4 4 4 4 3 3 3 3 3 3 3 3 5 6 5 4 4 6 7 6 7 7 7 5 5 7 7 8 7 7 4 4 2 2 2
1 2 3 3 5 1 3 3 4 2 5 1 0 0 1 3 5 3 3 3 5 7 8 11 14 12 10 9 11 11 13 13 13 14 14 14 13 11 9 9 9 9 9 8 6 8 11 10 9 9 9 7 6 6 7 6 5 5 4 3 4 4 4 3 3 4 4 4 3 3 3 3 3 2 2 2 2 2 2 2 2 2 2 3 5 3 3 3 3 3 2 4 3 3 3 2 2
2 2 1 3 2 0 2 4 4 1 3 1 0 0 3 1 1 3 9 8 9 9 9 10 7 8 12 12 13 12 14 15 16 15 16 16 16 15 9 7 6 7 7 8 9 9 11 11 10 9 9 9 7 7 7 6 7 6 6 5 4 3 4 4 3 3 3 3 3 3 4 4 3 3 2 2 2 2 2 1 1 1 2 2 2 2 2 2 2 1 2 2 2 2 2 1 1
3 0 1 1 2 1 1 1 4 2 1 2 0 3 2 4 2 3 7 13 3 2 3 8 8 9 9 11 13 13 14 16 17 18 17 16 15 14 12 9 9 9 8 9 8 8 9 10 10 9 9 8 9 7 6 6 6 6 5 6 5 4 3 4 3 3 3 3 3 4 5 4 3 3 3 2 2 1 2 1 1 1 1 1 1 1 1 1 0 0 1 1 0 1 1 1 1
3 2 1 2 3 3 4 3 3 3 6 3 3 1 2 1 5 1 6 12 2 2 4 5 6 10 12 13 15 17 18 17 21 18 18 17 17 16 13 11 9 6 8 9 9 8 8 11 11 10 10 9 9 9 8 7 6 7 7 5 6 5 5 4 4 4 3 3 3 4 4 5 5 4 3 3 3 2 2 2 1 1 1 1 1 1 1 1 0 1 1 0 1 1 2 1 0
3 1 2 1 2 5 6 5 5 4 7 0 1 1 4 7 3 2 9 10 4 2 3 6 8 10 10 12 15 14 14 14 14 13 10 10 11 11 10 9 11 9 10 10 9 9 10 9 11 11 10 10 8 9 8 7 6 7 6 6 7 6 5 4 4 4 3 3 3 3 4 4 4 4 4 4 2 3 2 2 2 2 1 1 2 2 2 1 1 1 1 0 0 1 1 2 2
6 5 2 2 3 3 5 3 2 3 1 3 2 5 4 4 2 5 15 4 6 5 6 7 8 10 12 14 15 14 14 16 14 13 14 11 11 14 13 11 10 11 12 11 9 9 9 10 11 12 11 10 9 9 8 7 8 7 8 8 7 6 7 5 5 4 3 4 5 4 3 3 5 5 5 4 4 4 3 3 3 3 3 2 2 3 2 1 1 1 1 1 1 1 1 1 1
3 5 2 5 8 5 2 2 2 1 2 6 3 1 0 1 2 7 2 2 6 5 6 4 8 11 11 10 11 12 13 15 17 12 10 10 11 15 14 11 12 12 10 10 9 8 8 9 11 11 11 10 9 9 8 8 8 8 9 8 7 8 6 6 5 5 5 5 5 6 4 4 3 3 4 5 4 4 3 3 4 3 3 4 3 3 2 2 1 1 1 1 1 1 2 1 1
4 3 0 5 7 5 6 4 6 1 2 6 4 1 1 1 1 10 2 1 2 8 5 7 7 8 9 10 11 11 10 10 9 10 15 15 13 12 13 13 13 11 11 11 9 8 8 11 11 11 10 10 9 10 9 8 8 9 8 8 8 7 7 7 6 6 6 6 6 6 6 5 4 4 4 4 5 5 4 4 4 4 5 4 4 4 2 2 2 1 1 1 1 1 2 2 1
2 3 2 4 5 7 1 4 1 0 2 5 5 1 1 1 6 10 2 1 2 5 5 6 7 6 8 9 8 8 11 9 9 11 15 13 10 12 16 15 13 11 8 9 10 9 11 11 11 11 11 10 12 11 10 9 8 7 7 8 7 7 7 6 7 7 7 6 6 7 7 6 5 5 4 5 4 3 4 5 4 5 5 4 4 4 3 2 1 2 2 1 1 1 2 3 1
3 4 2 4 5 7 6 1 1 2 2 6 3 6 6 9 15 5 1 5 4 5 5 6 6 7 7 8 9 9 7 8 11 13 12 12 11 12 15 14 12 10 8 8 10 11 10 8 8 9 11 11 12 10 9 8 9 7 7 7 7 8 8 7 8 7 6 6 6 7 7 7 6 5 5 6 4 5 5 5 5 5 5 3 2 3 4 2 2 2 3 1 3 3 4 3 2
3 2 2 2 1 6 4 0 1 5 1 3 1 7 5 6 11 8 4 4 8 8 8 7 6 8 7 7 8 9 10 11 14 13 11 11 11 11 12 12 13 11 9 10 12 12 11 10 8 9 10 13 11 12 10 9 8 7 7 7 8 9 8 8 8 7 7 7 7 7 8 7 7 5 5 4 6 6 6 6 6 5 3 3 3 3 3 2 2 3 1 3 2 2 3 3 3
1 4 4 2 4 5 7 3 3 4 0 2 2 6 8 8 11 0 3 6 5 8 8 8 8 8 8 7 9 9 10 10 10 9 10 11 11 10 12 13 12 12 13 12 11 10 11 12 10 11 11 14 14 12 11 10 10 9 8 7 8 10 9 9 8 8 8 7 7 7 8 8 8 8 7 6 5 6 7 5 5 4 4 3 3 2 2 3 4 4 4 4 3 4 3 4 2
4 3 1 1 3 5 6 1 2 3 2 0 8 6 3 4 4 2 1 4 3 7 7 7 8 8 7 8 8 9 8 10 9 10 12 12 11 10 11 12 13 15 13 13 12 11 12 12 12 13 14 14 14 13 13 11 10 10 8 7 9 9 9 8 8 7 7 7 7 7 8 8 8 8 8 8 6 6 5 5 4 4 3 4 3 3 3 3 2 2 2 2 3 3 3 4 3
2 1 5 5 4 3 2 4 3 3 1 3 4 4 7 5 5 2 1 6 5 5 9 6 5 6 7 7 8 9 10 10 12 12 14 13 11 12 10 10 13 13 13 14 13 14 14 13 12 12 12 12 12 12 12 12 10 9 8 8 8 9 10 9 7 7 8 8 8 7 8 8 8 7 7 7 6 5 5 5 5 4 5 4 4 4 4 4 4 3 4 3 4 4 4 4 5
6 4 3 4 0 0 2 1 0 2 1 2 3 6 11 9 10 7 5 5 6 9 10 8 8 8 8 8 8 10 9 10 13 11 12 12 11 11 10 10 10 10 11 12 12 12 11 11 10 11 12 12 12 12 10 11 10 8 7 9 9 9 9 9 7 7 8 6 7 7 7 7 6 7 7 7 6 6 5 5 5 7 5 4 5 5 3 4 4 3 5 5 2 3 4 4 3
7 7 5 1 2 3 3 3 2 2 3 3 5 8 8 11 12 15 3 5 7 8 4 5 7 7 8 9 10 9 10 13 12 10 9 9 10 10 10 9 9 9 10 11 11 11 12 10 11 10 11 11 10 10 9 9 8 8 9 7 8 9 7 7 8 8 7 8 7 7 7 7 7 7 8 8 7 6 6 6 6 5 5 5 5 6 5 4 6 6 6 5 4 4 4 4 3
5 4 3 3 4 3 2 2 1 1 2 6 8 7 9 10 11 14 4 4 4 6 8 9 8 8 9 9 10 10 11 16 6 8 9 9 9 10 9 9 9 9 10 10 11 12 13 13 11 13 11 10 9 9 9 10 10 10 10 11 11 9 8 8 7 7 7 8 9 8 8 7 7 7 7 7 7 7 6 5 5 4 4 5 5 7 8 7 5 5 4 4 5 4 3 2 2
8 6 5 4 3 7 3 1 2 3 2 4 1 3 8 12 13 14 8 5 10 10 10 10 11 9 8 9 11 12 15 5 5 9 7 8 9 10 9 9 10 12 12 12 14 15 14 13 14 13 10 10 11 11 9 9 10 9 8 8 8 7 7 8 8 7 8 7 8 9 9 9 9 7 8 7 6 7 6 6 6 6 6 5 6 4 4 5 6 5 4 3 3 5 4 3 3
3 6 5 3 4 3 7 3 2 2 2 7 4 5 10 11 12 13 13 9 9 9 10 11 11 10 9 10 11 12 7 10 8 12 8 9 10 10 10 10 11 13 13 15 15 14 13 14 14 13 12 11 11 11 11 11 10 9 10 8 9 6 6 8 9 8 9 10 10 10 9 9 9 8 8 9 8 7 8 8 8 6 6 6 5 6 5 5 5 6 6 5 3 2 3 1 3
5 6 6 6 3 3 5 1 4 2 2 3 4 8 11 10 10 14 14 7 8 10 10 12 9 11 11 13 13 10 10 11 13 15 13 11 11 11 10 11 12 12 13 13 12 13 12 13 14 15 13 12 11 12 12 12 11 10 10 10 9 9 8 8 9 8 9 10 11 9 9 9 9 9 9 9 8 8 10 9 7 5 6 6 6 6 6 7 6 5 5 6 5 5 3 1 4
0 5 3 4 2 3 4 3 2 3 1 1 4 7 11 8 10 12 5 5 7 10 6 9 9 9 10 5 3 8 13 12 13 12 10 10 11 14 16 16 11 12 14 14 14 14 12 16 16 16 15 14 12 12 13 11 9 8 8 6 4 6 2 5 6 7 8 9 9 8 9 8 9 9 9 9 9 9 7 7 8 7 7 7 6 7 6 8 7 6 5 5 6 5 4 4 2
3 4 6 7 7 6 1 2 3 6 3 1 3 5 8 3 7 11 4 2 5 5 8 12 13 11 9 10 12 9 9 10 12 14 13 11 13 12 9 9 12 13 14 15 14 15 15 15 15 15 13 12 13 14 14 11 11 11 9 9 9 9 9 8 11 12 9 7 8 6 7 8 9 9 8 9 9 9 8 8 7 8 9 7 8 8 8 5 5 6 6 6 5 6 6 3 3
6 7 5 6 7 5 5 2 3 3 5 1 3 5 9 5 10 6 5 5 9 6 8 10 9 9 7 11 11 12 12 12 10 12 10 8 12 11 12 12 15 15 16 14 14 16 17 16 14 14 14 13 13 13 13 12 13 12 14 13 12 12 11 10 8 8 8 8 6 8 8 8 9 9 8 8 8 9 9 8 7 7 6 6 6 6 7 8 6 6 4 6 6 5 5 5 6
5 2 10 6 6 4 3 4 3 4 2 4 1 3 5 9 12 4 8 10 13 11 11 8 10 9 10 11 12 12 12 12 11 14 14 12 10 12 15 17 15 18 17 11 13 13 16 17 15 16 13 13 12 12 13 14 14 14 14 14 12 13 12 12 10 8 7 8 8 9 8 8 8 9 9 8 8 8 8 8 7 7 7 7 6 7 8 6 5 4 5 5 4 5 6 5 4
2 5 9 9 8 4 5 4 2 1 3 7 2 0 4 7 8 5 1 12 15 14 11 10 8 11 12 12 13 13 14 13 12 12 13 12 13 13 13 12 13 11 8 12 15 14 14 13 13 12 13 13 12 14 14 15 14 14 14 12 13 12 11 10 7 7 8 9 10 8 8 8 7 8 7 8 8 8 8 7 7 7 7 7 6 6 6 6 6 5 5 4 5 5 5 4 4
2 6 3 4 5 4 3 2 1 2 2 8 3 2 4 16 6 9 1 4 13 7 7 11 10 12 12 12 12 13 12 10 8 12 12 9 9 10 10 7 5 12 12 11 10 9 10 10 12 14 15 12 12 14 14 15 15 13 13 14 15 12 10 7 7 8 8 8 10 9 8 7 7 7 7 7 7 7 7 7 7 6 7 6 6 5 5 5 5 5 6 6 5 6 4 5 5
8 7 7 4 4 2 3 3 2 3 6 7 7 6 5 10 3 10 7 9 8 8 6 7 8 9 11 11 11 10 11 10 8 7 9 11 9 8 6 11 14 10 9 11 11 11 11 12 13 15 16 13 13 14 15 16 15 14 14 15 16 15 13 11 9 8 8 8 9 9 8 8 6 7 6 6 7 7 7 7 7 6 5 5 6 6 6 6 6 6 5 6 6 6 5 5 3
12 3 5 6 3 5 5 2 2 2 7 3 3 6 7 8 3 5 8 3 2 6 9 10 11 11 11 10 10 8 5 5 5 5 8 8 7 7 5 10 11 11 7 10 12 12 12 12 13 16 15 14 13 13 14 15 14 15 15 16 16 16 14 12 13 12 11 11 11 9 8 6 7 6 6 5 6 7 6 6 6 6 5 6 7 6 6 6 5 5 5 5 5 4 4 5 5
4 8 8 8 2 3 2 1 5 10 7 1 1 3 1 17 14 4 4 7 8 8 9 10 9 9 8 8 6 5 4 4 7 7 7 7 8 8 8 11 8 8 10 12 12 11 12 12 15 16 16 15 15 14 16 16 15 16 16 16 16 13 14 14 14 13 12 12 10 9 8 9 8 6 7 7 7 8 7 6 6 6 6 6 6 7 7 6 6 5 5 5 5 5 5 6 5
7 11 10 8 5 5 6 3 2 4 2 2 3 1 5 9 10 10 15 16 13 8 7 8 8 10 10 9 7 7 8 7 7 7 8 8 9 9 8 8 8 8 9 10 9 10 10 11 13 15 17 15 14 14 16 16 17 17 16 15 14 12 14 14 13 13 12 11 10 11 11 12 11 12 11 11 9 8 7 8 8 7 7 7 7 7 7 6 6 6 5 5 5 4 6 6 6
7 2 7 4 4 5 6 4 8 6 3 1 4 2 9 2 4 1 5 6 7 6 4 6 6 8 9 8 8 10 11 11 9 9 9 9 8 5 7 7 8 8 8 9 8 9 9 11 12 15 15 13 14 16 15 17 16 15 14 14 13 12 13 12 12 11 11 11 10 11 10 10 11 10 11 9 7 8 8 7 8 8 8 9 8 8 7 7 6 6 5 5 4 4 6 6 6
1 2 3 1 6 3 3 3 2 2 1 0 3 8 3 6 4 8 6 4 7 7 8 6 9 7 5 7 9 10 9 9 6 6 8 8 6 6 6 7 7 6 7 7 8 8 9 11 11 13 15 15 15 16 16 17 16 13 14 15 15 14 12 11 10 9 9 11 11 11 11 10 10 10 7 7 8 9 9 9 8 8 8 9 8 8 8 7 7 7 7 6 6 4 6 8 6
8 6 9 7 2 7 3 1 0 3 2 8 3 8 8 7 8 9 14 7 11 4 5 3 7 5 3 7 9 10 10 9 8 7 7 8 6 5 6 7 6 6 6 7 8 8 10 10 10 12 12 10 12 14 15 14 13 13 14 15 13 13 13 13 12 12 12 10 10 10 9 10 9 8 8 8 9 7 8 9 9 8 8 9 8 8 8 8 7 6 6 7 7 6 7 8 6
8 9 7 5 2 3 4 2 1 1 4 6 2 9 7 2 10 5 4 4 10 9 5 5 5 4 4 6 7 6 6 8 8 8 8 8 8 7 6 6 6 7 7 7 8 6 6 7 8 11 10 12 11 11 12 12 12 13 13 13 13 13 13 12 11 11 10 9 9 8 7 7 8 8 8 8 9 9 8 8 8 8 7 7 8 8 9 8 8 6 7 7 7 7 7 5 5
7 6 6 11 4 2 2 3 3 1 2 5 4 4 7 8 10 8 10 4 6 11 8 3 5 3 5 5 8 10 9 7 7 7 7 7 6 6 6 6 5 6 6 7 6 6 6 6 6 6 9 9 8 8 8 8 9 9 10 11 12 11 11 10 9 9 9 10 10 9 9 9 7 7 7 8 8 8 8 7 8 8 7 7 7 8 8 8 8 7 6 7 6 7 8 6 5
2 2 5 1 3 2 6 8 3 5 3 1 7 4 7 5 6 9 14 13 9 9 8 5 3 6 3 4 6 8 9 8 8 7 7 7 7 6 6 6 5 5 5 5 5 4 6 7 7 8 6 5 5 7 7 9 9 8 8 7 8 8 8 9 9 10 9 10 10 10 9 9 9 8 9 10 9 10 9 9 7 8 8 7 8 7 8 8 8 7 7 7 6 8 9 8 5
5 4 7 2 1 2 5 1 4 4 4 4 2 7 5 7 6 5 10 9 10 9 12 8 5 3 2 4 7 8 8 8 8 7 7 7 7 7 6 5 4 4 4 4 3 5 5 4 6 7 8 8 8 8 8 9 8 8 8 9 8 8 8 8 8 9 10 10 9 10 10 10 9 9 9 9 9 10 9 9 9 8 9 8 9 8 6 8 8 8 7 8 7 8 9 6 7
10 13 15 16 12 6 7 6 2 1 2 4 2 10 5 6 3 8 9 10 7 9 6 10 7 5 7 7 6 5 8 8 7 7 7 7 7 7 6 3 3 3 4 4 3 3 4 5 5 5 5 6 7 7 7 7 7 7 9 9 9 8 8 8 9 9 9 9 9 9 9 9 11 10 10 11 10 9 9 9 9 8 8 8 9 10 8 8 9 8 7 7 8 8 8 7 7
Wind_Direction
344 6 344 126 65 95 52 0 147 332 57 44 321 42 166 0 262 96 191 21 155 251 204 81 127 148 189 205 193 144 321 145 200 145 203 203 224 138 144 137 130 130 122 108 85 72 110 131 130 117 118 114 109 93 94 104 105 106 100 96 94 98 98 96 93 95 93 85 92 96 96 90 88 93 98 95 96 95 91 87 85 83 83 84 86 84 82 81 80 79 78 77 76 74 74 76 75
0 346 49 356 45 41 281 133 97 346 42 74 216 105 256 289 47 218 175 193 205 186 197 114 91 96 73 64 109 141 64 35 177 110 61 121 129 126 145 140 143 136 129 116 88 87 109 113 115 121 118 112 100 108 111 114 108 112 99 97 104 104 103 98 93 94 94 100 103 97 91 91 97 98 98 98 92 94 92 89 89 86 85 86 86 85 82 80 79 78 78 79 79 77 76 76 77
16 19 305 34 43 67 94 26 302 25 73 24 273 207 354 175 210 213 208 214 157 126 120 94 121 48 356 67 88 15 174 101 156 234 120 138 143 175 152 146 141 127 125 114 94 99 108 118 126 128 120 114 107 108 115 111 114 102 101 104 107 96 91 95 103 105 102 96 93 93 95 93 89 89 90 91 96 94 91 90 88 86 87 87 86 84 82 80 79 79 78 78 78 77 77 77 77
95 36 158 63 290 39 43 24 89 124 84 224 303 271 197 179 231 208 245 215 139 114 357 62 110 250 65 39 157 104 72 125 175 145 137 164 170 154 150 149 128 123 107 99 96 95 107 130 135 137 120 121 114 109 120 113 108 106 104 101 96 99 95 93 93 92 107 102 98 98 95 98 96 94 94 97 98 95 90 86 84 83 82 77 76 84 86 83 80 79 79 79 79 80 78 78 79
65 353 71 98 103 7 100 100 128 107 52 195 15 259 237 206 193 195 140 182 157 90 56 153 83 354 98 97 87 144 192 93 146 158 144 143 114 150 146 145 132 124 116 100 92 94 114 131 136 140 124 123 116 109 111 123 113 109 102 97 100 101 107 107 111 106 95 97 97 94 98 97 95 90 89 90 91 92 87 85 84 83 83 85 85 86 86 84 79 77 77 80 81 80 80 79 78
60 44 8 78 43 162 68 63 37 69 213 151 168 254 223 210 164 181 152 195 241 241 198 72 157 195 52 347 187 118 159 147 176 53 155 144 143 146 142 139 127 124 113 103 94 97 109 124 129 139 131 128 124 116 98 95 100 100 109 111 101 99 103 99 106 106 99 99 91 96 100 94 92 95 98 95 94 93 93 90 88 84 83 82 83 82 83 82 81 80 79 80 81 81 80 80 78
301 44 1 33 45 50 167 129 211 196 281 167 218 243 230 210 199 137 143 142 279 102 114 202 125 115 89 292 30 294 66 147 156 165 148 138 139 140 143 145 123 125 122 109 102 101 116 122 129 113 68 136 126 122 125 121 115 108 101 99 104 102 104 106 101 107 106 97 99 98 96 97 93 92 91 95 98 97 98 96 92 87 81 80 80 80 79 80 80 81 84 83 83 84 82 81 80
67 127 328 111 316 41 48 146 228 179 12 181 219 242 259 206 168 160 164 138 212 190 198 226 64 110 258 7 160 242 8 27 291 119 122 143 140 138 146 147 143 142 132 128 111 106 97 108 123 115 105 102 135 135 134 126 119 105 115 114 107 111 112 105 105 107 110 103 96 92 91 92 94 93 97 97 98 100 98 96 93 89 85 80 78 78 80 82 84 83 81 81 81 82 81 79 79
6 81 238 71 43 39 60 332 277 255 288 285 267 224 289 176 178 145 165 234 331 244 134 168 247 108 215 40 168 292 333 351 148 123 142 144 148 146 145 149 150 148 144 138 112 95 87 98 124 131 123 104 129 131 133 134 120 124 126 117 115 104 106 111 111 110 106 107 101 93 94 94 96 97 97 96 95 97 100 97 95 90 87 83 81 81 82 84 83 84 82 81 81 81 82 80 78
47 39 282 113 132 300 4 300 51 172 243 235 240 241 188 158 159 133 151 104 227 115 169 82 147 85 109 130 329 15 62 125 138 129 150 148 149 149 146 152 156 149 145 145 134 103 84 95 118 125 119 95 75 125 132 126 126 126 132 113 112 115 118 118 106 104 98 93 96 100 97 96 96 100 99 99 100 100 99 99 95 90 88 84 79 79 80 81 83 83 84 83 82 82 82 81 79
3 18 129 77 27 60 271 269 252 306 256 312 284 235 211 135 130 136 104 180 29 145 177 223 53 126 97 231 263 275 291 167 148 150 152 153 150 153 149 151 157 160 154 147 137 111 89 93 111 125 128 99 77 82 132 134 135 142 126 122 128 137 130 123 113 108 109 103 105 104 102 100 99 98 94 92 94 96 97 96 96 95 90 85 83 81 80 79 78 77 80 82 81 81 82 82 82
21 16 11 101 150 157 238 194 280 282 296 324 248 327 191 145 122 135 160 143 196 138 183 166 208 138 71 352 273 326 345 169 163 150 151 150 149 150 148 152 159 163 162 150 139 118 97 93 104 127 123 111 81 81 105 124 127 135 65 124 144 151 139 121 123 128 118 115 110 104 102 103 102 96 91 90 84 92 93 97 99 94 92 89 88 85 84 85 81 80 79 80 83 84 83 82 82
101 68 82 89 182 196 163 273 253 305 324 270 167 202 137 129 186 179 151 112 135 122 271 207 129 88 143 185 270 313 177 191 169 154 152 157 152 147 149 152 160 161 165 168 150 125 112 111 111 119 128 112 82 78 91 102 119 119 103 55 56 62 99 95 80 61 97 120 102 87 80 75 78 87 86 79 71 79 80 82 95 101 98 95 87 86 83 82 82 79 76 76 79 84 85 84 82
108 184 131 157 24 128 160 245 348 3 303 249 276 121 175 141 229 171 132 139 202 169 244 169 150 145 90 345 274 231 204 183 180 157 149 153 147 147 151 156 156 162 173 173 167 146 138 115 113 124 131 109 103 89 98 98 104 111 85 75 69 85 97 93 87 86 83 86 88 86 82 80 80 78 73 69 67 59 56 74 87 100 104 99 89 81 83 82 81 78 73 70 70 73 77 79 77
65 163 81 109 61 87 242 99 325 140 265 179 141 141 190 307 115 132 166 155 242 211 359 140 172 142 205 162 243 206 183 179 161 149 150 146 150 148 149 154 155 163 172 174 173 170 146 134 129 127 122 122 104 102 114 98 99 107 102 91 91 93 97 97 98 97 95 93 89 89 83 84 83 80 77 73 70 65 60 54 72 101 106 102 92 82 77 81 79 76 71 67 65 66 68 67 65
136 86 77 106 115 152 231 177 44 82 277 162 12 338 135 353 195 128 242 155 132 352 175 179 69 229 215 163 246 209 146 158 148 146 150 151 150 146 147 153 162 167 175 171 186 188 164 147 140 130 133 125 124 116 109 107 109 112 111 104 103 102 102 104 102 97 97 100 99 98 96 91 85 80 81 75 70 67 62 56 52 64 98 103 102 88 77 80 79 76 72 66 62 60 60 58 56
79 78 42 34 205 162 220 168 153 53 263 287 302 187 172 206 225 252 297 294 121 200 348 246 174 358 180 207 244 247 138 142 142 151 156 152 152 153 154 155 164 170 181 178 196 198 185 161 149 144 146 139 136 130 124 112 115 116 110 112 114 113 108 107 103 100 101 101 105 102 99 94 88 86 82 81 75 68 68 68 61 53 53 79 104 87 77 75 76 73 71 67 61 57 52 51 39
63 71 110 246 200 138 198 177 191 202 32 323 186 217 188 196 164 215 85 40 58 35 220 300 299 252 261 277 281 171 139 144 155 159 166 163 166 161 163 169 167 180 180 185 197 201 189 187 164 157 152 151 146 143 136 136 128 116 118 117 115 115 115 114 107 108 103 104 103 103 96 99 96 96 94 89 85 80 76 75 71 66 59 52 55 78 68 69 67 67 67 65 61 58 53 50 37
84 118 105 218 180 222 144 179 220 1 314 290 263 214 195 245 145 212 135 268 75 120 256 351 330 287 14 52 124 137 147 151 164 170 170 173 176 176 170 170 179 177 189 189 195 200 196 193 192 173 162 162 155 151 148 141 144 138 130 122 118 121 124 113 116 112 123 117 109 102 99 100 100 89 89 98 93 78 70 71 71 65 64 58 62 58 56 57 57 60 62 64 59 52 47 45 37
220 124 204 246 210 250 251 206 292 198 182 307 316 300 151 246 170 109 218 155 89 203 206 260 238 221 210 165 143 151 156 162 172 175 179 182 183 181 171 176 181 186 187 187 188 194 197 199 195 191 175 170 165 160 155 157 154 155 147 132 129 134 128 131 124 130 134 133 129 118 117 114 107 111 92 86 91 94 76 67 65 62 59 52 37 57 47 48 54 61 62 58 57 51 42 38 29
276 117 192 212 184 103 195 186 224 233 164 225 296 43 183 250 202 170 175 124 240 253 228 188 204 201 182 173 159 161 163 169 179 186 188 188 189 190 184 181 181 181 186 184 187 192 196 198 195 194 188 180 175 166 165 168 161 159 160 147 138 143 141 137 142 145 145 144 139 140 136 122 111 107 111 109 105 106 91 90 79 66 41 60 30 57 27 20 29 33 25 45 47 51 55 41 28
107 209 191 153 117 106 242 210 180 176 205 135 86 210 237 70 62 191 160 189 225 212 228 217 217 177 160 169 172 168 171 174 184 191 194 192 192 192 186 182 175 177 177 187 196 193 194 199 197 194 193 189 192 186 183 169 167 167 170 166 151 141 148 151 152 154 155 153 152 149 137 132 127 126 124 123 114 118 124 106 83 66 66 67 48 49 51 359 27 1 47 61 60 53 71 70 55
192 3 190 198 201 231 245 213 212 168 139 146 167 222 65 179 240 185 184 216 226 232 230 212 191 167 176 159 159 172 177 185 188 194 194 195 195 194 193 187 183 186 188 199 192 199 195 194 197 195 196 194 196 191 189 180 189 184 172 172 169 175 162 159 169 162 167 160 151 156 152 151 151 154 152 150 151 128 150 150 126 104 118 105 61 91 87 52 43 100 131 66 50 26 74 91 88
102 167 184 227 171 226 240 255 183 192 148 210 204 79 209 154 236 159 197 235 174 296 237 227 171 143 149 159 175 177 185 187 194 197 195 197 194 194 193 190 189 186 193 199 197 196 196 196 195 196 197 194 195 194 193 193 195 191 189 167 192 181 170 179 169 178 160 164 166 168 167 161 164 168 178 181 176 171 184 175 176 171 142 146 150 154 172 195 155 122 170 128 32 48 322 15 41
114 207 167 277 146 240 276 272 279 203 223 246 123 175 236 192 201 76 243 235 222 353 87 119 129 140 157 165 179 189 191 195 197 197 197 202 201 198 196 196 195 189 201 201 199 198 199 195 192 196 198 197 194 190 197 196 193 198 194 195 201 185 191 180 173 160 173 174 174 171 168 167 170 173 184 193 175 203 202 203 205 222 215 185 191 218 206 199 160 143 119 95 48 352 313 317 324
189 218 25 307 266 284 284 287 243 216 203 156 108 247 276 260 252 257 249 228 201 132 80 119 134 147 169 182 185 184 190 194 193 191 198 194 193 201 204 201 197 199 204 202 196 201 197 195 195 198 197 198 194 192 198 197 195 195 201 203 204 192 202 190 168 181 175 175 189 186 185 175 178 185 194 186 191 207 208 206 220 226 228 223 209 221 215 209 210 160 175 167 193 232 269 258 269
143 164 195 296 288 316 316 337 268 262 232 171 177 302 286 351 116 274 342 257 148 111 112 132 155 175 185 184 189 193 189 193 193 190 189 198 201 205 207 203 203 205 199 202 200 202 195 194 200 200 199 197 195 195 195 197 197 202 203 201 201 203 202 189 191 191 187 192 188 187 186 186 178 177 183 193 201 208 209 213 224 224 232 230 222 234 221 217 219 234 225 238 239 257 266 269 268
78 115 189 265 299 274 262 289 289 273 272 185 158 243 280 306 95 244 240 358 190 150 155 166 181 187 190 193 192 197 201 200 190 184 196 195 202 201 205 206 206 201 199 202 200 199 195 199 204 202 201 196 198 200 196 196 200 205 201 199 204 203 197 200 198 197 198 196 190 189 193 191 185 185 185 186 201 205 211 216 220 222 233 232 223 228 220 222 230 257 250 269 280 282 284 286 281
134 150 262 278 335 313 292 254 298 21 288 165 161 59 317 211 222 241 184 144 120 140 162 190 202 206 198 198 196 196 205 191 189 200 204 204 201 204 208 205 202 201 202 195 198 191 203 202 205 205 202 198 201 203 198 200 200 200 200 203 204 194 199 202 203 202 202 198 192 193 195 192 190 187 195 189 195 195 209 216 221 226 233 231 223 226 224 223 238 248 260 261 276 263 276 268 266
98 52 140 334 356 306 281 332 134 146 269 170 169 267 248 234 236 232 238 132 111 125 187 202 212 213 211 202 201 207 196 190 205 208 203 204 204 204 210 208 205 203 197 196 194 200 200 205 202 204 202 202 204 206 202 201 200 199 204 209 206 200 204 204 208 205 199 197 197 199 198 197 196 201 190 204 199 209 211 217 218 227 228 214 205 212 222 211 223 234 237 224 243 243 252 257 244
165 180 85 207 44 263 284 137 202 201 146 183 333 240 267 281 262 249 178 179 160 204 211 207 213 216 216 210 210 210 210 207 210 207 205 206 206 205 207 206 204 204 203 203 205 200 194 202 198 209 198 206 200 207 204 206 199 198 201 207 207 205 206 208 209 203 200 200 195 201 200 201 201 195 195 186 205 207 210 217 223 226 202 199 205 209 212 206 220 244 225 237 237 239 254 262 246
54 113 254 350 169 272 297 187 170 202 335 123 143 258 247 252 267 297 204 181 178 219 216 212 213 216 216 213 215 218 219 218 223 215 213 213 206 205 204 206 202 203 208 208 206 197 203 206 202 208 200 203 206 205 208 209 205 203 200 200 207 207 207 210 210 206 202 198 195 200 201 201 200 203 199 195 198 204 210 209 221 215 194 190 208 193 199 217 208 208 210 208 238 247 233 256 226
4 160 283 248 142 256 338 316 222 263 131 279 185 233 326 291 285 321 89 164 198 222 236 226 221 221 220 220 217 221 225 230 226 219 216 212 211 206 204 203 202 206 207 209 206 202 208 204 205 208 209 205 206 205 207 210 207 205 197 195 206 206 209 211 211 205 202 197 198 201 200 200 200 200 195 194 189 199 203 213 222 208 187 197 192 191 208 213 235 265 270 236 243 264 256 264 265
185 359 210 191 185 210 211 286 55 357 14 250 231 231 231 263 279 280 331 171 167 228 245 242 237 232 230 235 232 226 225 225 223 214 219 211 210 208 206 203 204 203 207 208 207 207 209 207 206 206 209 206 204 205 204 208 207 201 197 199 199 208 213 214 209 201 206 202 200 203 200 198 200 195 188 186 196 193 195 203 213 194 187 190 193 188 209 198 212 213 243 210 201 213 242 249 261
180 192 190 261 329 327 280 24 267 8 58 255 318 258 258 269 287 254 215 187 184 223 228 226 220 216 223 227 232 234 233 233 233 223 222 214 213 211 208 205 205 203 207 206 204 207 209 209 207 207 206 205 205 203 202 204 204 204 201 201 203 210 215 216 210 208 208 202 202 196 190 195 192 191 189 185 195 198 203 210 207 201 193 189 182 188 204 212 219 217 227 235 196 243 260 253 270
194 174 176 106 166 212 209 246 299 56 314 278 243 245 266 262 260 270 205 180 189 240 271 257 241 233 224 221 226 230 231 239 238 230 225 217 214 208 208 205 206 205 206 205 206 205 208 206 206 208 209 208 204 205 199 201 197 197 199 194 206 206 207 206 208 210 205 208 206 198 196 195 191 191 190 188 194 195 196 199 216 193 187 180 193 178 196 196 208 209 225 233 257 254 224 242 235
137 131 138 214 196 273 282 265 253 100 356 244 242 245 246 260 257 265 277 153 229 255 255 239 236 230 225 225 228 232 233 235 234 232 223 213 211 210 208 202 208 206 207 204 206 209 209 210 201 211 206 201 201 201 197 193 199 204 208 204 210 202 201 199 204 206 206 208 206 203 199 199 192 192 196 182 190 197 200 201 208 210 200 187 198 198 194 202 204 202 207 181 216 245 255 197 206
143 153 165 214 168 244 230 205 339 321 158 285 316 281 254 253 259 260 246 176 236 230 235 241 243 234 232 226 231 226 231 261 262 250 226 206 210 209 203 206 201 205 210 205 209 210 210 208 210 214 203 200 204 202 200 203 206 204 199 211 208 205 195 195 203 206 208 206 205 205 206 207 201 194 194 189 191 190 188 193 197 204 200 202 206 228 186 184 193 203 174 207 192 238 252 174 169
104 138 160 153 257 269 285 271 350 312 109 263 300 291 266 259 261 261 260 230 243 229 216 227 223 231 228 228 234 238 235 238 236 245 223 215 211 209 206 210 211 214 212 211 213 210 209 211 216 214 210 202 205 203 201 209 206 204 204 206 199 202 201 198 206 204 199 205 207 207 205 203 199 201 198 195 185 189 202 192 210 209 198 195 198 206 200 205 196 204 182 213 225 217 255 210 171
115 94 137 195 217 133 290 289 354 319 180 269 293 301 282 271 257 255 258 235 247 238 226 235 211 219 221 223 221 227 231 236 234 234 224 212 207 208 207 211 212 208 214 216 212 212 212 215 214 213 213 205 205 204 205 209 206 205 207 207 202 201 202 201 207 206 205 209 214 208 207 201 197 200 198 197 204 200 199 193 194 196 203 199 206 208 196 216 205 207 209 216 213 245 227 256 186
154 157 138 151 162 205 164 241 302 297 347 43 318 292 285 235 256 270 248 241 244 257 251 251 244 234 238 259 280 215 226 224 235 245 227 209 208 210 206 209 203 209 214 213 207 207 210 213 212 210 211 206 206 202 202 201 196 201 205 208 202 203 131 188 201 214 209 202 204 199 206 201 202 200 196 199 201 206 204 195 180 188 206 202 199 216 215 217 205 204 184 205 202 228 246 216 213
186 243 186 174 165 140 265 333 27 11 332 324 71 343 263 298 253 256 276 306 230 250 236 239 240 229 233 241 242 238 236 229 228 237 229 211 212 219 216 204 202 212 215 215 206 209 210 215 211 209 209 207 206 203 196 190 197 198 187 192 196 200 206 198 200 198 184 188 200 192 196 197 202 206 202 199 199 201 202 207 197 183 211 211 209 218 217 195 207 212 198 200 212 209 225 229 221
155 240 162 161 158 125 87 16 71 268 239 256 44 218 281 319 292 263 275 275 264 276 248 254 254 250 233 231 236 236 229 236 236 249 246 214 215 210 209 205 207 210 217 209 204 210 211 214 210 206 207 208 204 200 189 189 197 200 200 200 197 204 209 214 213 211 204 202 190 193 200 201 204 201 200 201 202 201 202 202 204 200 196 206 202 205 217 218 212 200 167 187 202 201 192 218 225
210 196 140 124 110 143 150 99 128 240 260 294 104 133 262 296 273 223 256 269 265 268 269 262 265 260 246 237 234 235 234 229 227 231 236 228 221 206 212 211 206 211 213 198 211 213 211 211 204 204 207 207 201 194 190 193 197 199 202 205 207 212 210 215 203 204 189 177 191 195 195 199 200 201 199 201 204 203 201 200 200 201 202 210 189 202 213 214 194 182 179 186 183 188 185 209 221
217 178 149 160 162 156 132 103 149 220 41 291 49 38 302 230 272 310 353 259 263 254 266 273 260 257 250 244 241 237 238 233 221 232 236 225 222 219 222 219 218 223 207 203 209 209 210 211 208 207 209 207 202 193 193 195 198 197 199 202 209 215 213 215 201 190 186 179 191 194 193 192 193 200 200 198 202 203 199 203 200 201 204 207 191 197 199 188 186 171 160 159 175 177 182 182 187
275 140 51 80 82 69 121 109 82 341 50 264 152 180 232 277 235 263 355 249 258 262 254 257 240 237 241 243 242 240 244 245 226 231 242 241 229 230 229 241 229 216 214 215 218 210 209 204 206 207 212 207 201 197 197 198 197 195 200 203 208 209 204 201 182 193 191 180 194 190 192 190 192 197 203 207 206 207 206 201 206 202 201 193 188 189 170 167 165 165 171 178 172 171 180 176 194
119 120 110 84 45 40 24 63 83 34 260 251 164 204 166 293 202 219 186 228 213 233 265 264 253 242 247 244 244 243 237 239 239 234 241 242 237 235 216 220 227 225 211 206 211 207 204 201 202 206 212 205 200 201 196 199 196 198 203 203 205 207 200 195 192 194 188 185 196 192 191 195 188 199 199 208 209 205 207 204 203 202 188 174 168 160 161 162 162 161 166 149 161 164 162 165 150
133 143 131 107 5 27 27 343 27 164 255 111 247 174 165 223 289 259 219 247 232 209 227 231 239 240 239 239 239 249 267 272 268 255 256 256 271 255 231 238 234 232 213 214 213 207 202 202 199 206 210 205 202 201 199 202 199 203 207 204 205 205 196 195 199 195 185 175 191 191 190 185 195 197 195 191 201 201 199 199 196 175 164 164 163 148 143 147 142 143 153 163 153 146 153 152 154
123 132 132 131 172 65 260 102 219 208 230 201 181 138 45 233 241 309 279 259 258 228 223 238 256 277 284 293 302 283 266 274 271 263 263 265 252 254 240 244 245 234 219 218 217 210 210 206 200 202 208 202 201 197 200 202 202 205 205 205 207 202 200 199 200 201 192 193 191 188 178 193 186 184 190 180 195 193 184 175 162 160 154 153 144 139 142 135 142 150 151 140 134 146 156 147 158
164 160 154 139 147 173 212 186 328 323 294 281 95 121 272 277 292 220 243 254 241 239 234 253 256 262 273 283 300 305 299 274 263 255 254 252 246 245 243 249 243 239 230 223 217 213 211 211 206 205 211 199 199 198 201 202 207 208 205 205 204 198 203 200 201 200 194 194 191 192 186 177 181 189 170 192 186 182 177 172 164 155 149 141 138 136 139 145 145 142 136 135 155 155 136 153 141
179 76 167 168 135 161 202 174 199 216 208 221 284 78 233 133 244 336 234 262 294 288 248 259 264 260 267 282 291 285 275 271 251 253 251 256 265 264 266 259 255 245 236 228 218 214 209 212 208 211 212 201 198 202 200 206 209 208 204 205 203 201 203 199 202 199 189 190 192 194 194 193 191 194 188 188 164 169 164 153 152 146 149 142 134 135 133 131 127 119 119 120 121 128 133 130 129
296 177 56 100 222 116 147 207 151 203 193 248 203 212 205 193 268 286 250 265 290 278 281 276 274 268 274 283 278 272 265 268 273 269 273 268 264 266 263 266 266 264 252 240 226 218 213 216 215 218 215 205 200 199 203 205 206 202 202 202 204 201 201 199 199 195 193 189 188 190 191 189 190 185 178 163 168 161 157 154 149 153 150 140 148 141 128 126 128 122 123 128 123 125 128 127 130
199 124 216 197 147 94 110 49 333 94 48 256 172 292 277 297 288 250 265 269 271 264 267 274 268 283 295 263 260 273 282 284 281 268 270 279 281 260 241 240 246 252 255 240 235 222 219 215 215 221 224 220 210 207 208 206 205 200 204 203 201 200 197 197 196 194 190 185 183 189 186 188 180 174 168 168 159 164 156 154 154 154 157 151 145 144 137 130 126 130 137 139 132 129 123 127 129
115 198 203 79 97 119 131 201 1 105 185 263 101 239 290 35 280 330 7 280 275 283 277 269 280 311 311 286 293 280 258 262 280 282 277 273 271 271 267 255 238 238 238 240 235 234 236 237 228 222 221 221 219 213 211 206 203 205 204 204 203 200 198 199 195 188 179 173 181 181 173 163 178 173 164 164 158 156 153 151 150 151 150 147 152 144 136 132 123 134 148 145 141 130 116 112 119
156 190 191 147 219 237 265 89 249 140 273 270 293 272 268 200 251 347 334 337 274 272 278 288 299 283 256 282 295 297 299 298 289 289 292 289 273 262 256 255 244 232 236 240 251 235 223 224 234 236 233 230 226 219 217 218 213 210 207 204 201 199 198 195 190 178 171 177 178 176 176 177 159 154 152 152 155 151 150 151 148 145 146 146 140 136 135 134 145 146 144 137 142 129 118 118 105
45 67 175 201 105 164 151 199 167 112 237 50 283 28 261 187 220 210 245 245 236 249 270 278 250 267 277 280 287 293 302 300 298 292 285 278 273 260 250 247 252 243 236 234 235 234 232 229 218 220 231 233 226 216 208 212 209 208 206 200 203 200 195 188 179 170 175 182 179 174 170 161 168 159 161 157 157 157 154 151 152 149 142 144 139 140 137 145 142 145 143 136 142 127 124 116 121
163 151 184 219 260 243 116 94 145 171 174 182 269 312 277 255 214 183 239 250 248 258 277 278 262 262 254 257 273 290 292 299 299 290 286 282 279 282 276 261 256 260 253 258 244 226 230 223 229 227 221 218 216 211 205 214 200 205 194 194 192 189 187 179 172 177 178 181 174 172 173 168 149 164 154 153 154 158 154 153 150 149 148 150 145 142 148 143 136 142 140 140 141 132 124 121 113
179 173 189 187 163 160 153 242 29 91 125 237 144 267 241 269 173 202 221 247 235 251 272 290 288 313 305 298 283 261 291 295 291 288 282 280 281 284 290 288 279 284 270 249 237 230 235 220 217 220 231 231 222 215 210 207 204 199 199 194 190 185 180 177 177 176 179 176 172 173 162 151 165 159 159 153 157 155 148 150 148 144 149 146 147 130 139 143 143 132 130 141 139 135 130 123 132